EW4498 Weather Reports


Display with metric or nautical units.
time (UTC)temp
F
wind
direction
speed
MPH
gust
MPH
rain 1hr
in
rain 24hr
in
rain mn
in
humidity
%
barometer
mb
20260509023048 31 98 0.0 0.0 0.00 0.00 0.00 87 1023.6
20260509021546 32 98 0.0 0.0 0.00 0.00 0.00 87 1023.7
20260509020052 32 98 0.0 0.0 0.00 0.00 0.00 86 1023.8
20260509014544 32 98 0.0 0.0 0.00 0.00 0.00 87 1023.9
20260509013042 32 98 0.0 0.0 0.00 0.00 0.00 86 1024.0
20260509011545 32 98 0.0 0.0 0.00 0.00 0.00 86 1024.0
20260509010041 33 98 0.0 0.0 0.00 0.00 0.00 86 1024.0
20260509004539 33 98 0.0 0.0 0.00 0.00 0.00 86 1024.0
20260509003037 33 98 0.0 0.0 0.00 0.00 0.00 86 1024.2
20260509001536 33 98 0.0 0.0 0.00 0.00 0.00 85 1024.3
20260509000033 33 98 0.0 0.0 0.00 0.00 0.00 83 1024.3
20260508234532 33 98 0.0 0.0 0.00 0.00 0.00 82 1024.4
20260508233034 34 98 0.0 0.0 0.00 0.00 0.00 81 1024.4
20260508231526 35 98 0.0 0.0 0.00 0.00 0.00 79 1024.5
20260508230022 36 98 0.0 0.0 0.00 0.00 0.00 77 1024.5
20260508224522 37 98 0.0 0.0 0.00 0.00 0.00 74 1024.5
20260508223015 38 98 0.0 0.0 0.00 0.00 0.00 72 1024.5
20260508221511 41 98 0.0 3.0 0.00 0.00 0.00 67 1024.5
20260508220007 42 98 0.0 1.0 0.00 0.00 0.00 66 1024.5
20260508214521 44 98 0.0 0.0 0.00 0.00 0.00 62 1024.4
20260508213005 45 98 0.0 3.0 0.00 0.00 0.00 61 1024.5
20260508211504 45 132 1.0 3.0 0.00 0.00 0.00 61 1024.3
20260508210003 45 106 0.0 2.0 0.00 0.00 0.00 64 1024.3
20260508204502 45 154 0.0 3.0 0.00 0.00 0.00 63 1024.2
20260508203001 46 155 0.0 3.0 0.00 0.00 0.00 61 1024.2
20260508201600 46 159 1.0 3.0 0.00 0.00 0.00 58 1024.0
20260508200059 47 162 1.0 4.0 0.00 0.00 0.00 54 1023.9
20260508194607 47 144 1.0 3.0 0.00 0.00 0.00 52 1023.7
20260508193118 48 161 0.0 3.0 0.00 0.00 0.00 53 1023.7
20260508191605 49 140 1.0 4.0 0.00 0.00 0.00 52 1023.4
20260508190109 49 118 3.0 8.0 0.00 0.00 0.00 50 1023.4
20260508184552 51 130 3.0 7.0 0.00 0.00 0.00 44 1023.3
20260508183051 51 136 4.0 9.0 0.00 0.00 0.00 39 1023.2
20260508181554 52 134 3.0 8.0 0.00 0.00 0.00 38 1023.2
20260508180049 53 150 2.0 7.0 0.00 0.00 0.00 39 1023.0
20260508174550 53 128 4.0 8.0 0.00 0.00 0.00 40 1023.0
20260508173047 54 84 3.0 8.0 0.00 0.00 0.00 44 1023.0
20260508171547 54 153 4.0 8.0 0.00 0.00 0.00 44 1023.0
20260508170046 55 144 5.0 10.0 0.00 0.00 0.00 44 1022.8
20260508164544 55 144 6.0 10.0 0.00 0.00 0.00 43 1022.7
20260508163057 55 83 2.0 12.0 0.00 0.00 0.00 44 1022.7
20260508161552 56 104 5.0 12.0 0.00 0.00 0.00 41 1022.7
20260508160040 56 134 6.0 11.0 0.00 0.00 0.00 38 1022.8
20260508154540 56 120 6.0 12.0 0.00 0.00 0.00 35 1022.7
20260508153053 56 134 5.0 13.0 0.00 0.00 0.00 35 1022.8
20260508151538 56 143 7.0 12.0 0.00 0.00 0.00 32 1022.8
20260508150037 57 157 5.0 11.0 0.00 0.00 0.00 31 1022.8
20260508144536 57 117 6.0 12.0 0.00 0.00 0.00 37 1022.9
20260508143055 57 75 8.0 14.0 0.00 0.00 0.00 40 1023.0
20260508141538 57 85 9.0 18.0 0.00 0.00 0.00 39 1023.0
20260508140034 57 89 5.0 11.0 0.00 0.00 0.00 43 1023.1
20260508134537 57 76 6.0 12.0 0.00 0.00 0.00 42 1023.0
20260508133134 58 121 6.0 12.0 0.00 0.00 0.00 42 1023.0
20260508131531 58 129 6.0 11.0 0.00 0.00 0.00 40 1023.0
20260508130031 58 97 5.0 10.0 0.00 0.00 0.00 41 1023.2
20260508124533 58 118 5.0 16.0 0.00 0.00 0.00 43 1023.1
20260508123030 58 76 6.0 12.0 0.00 0.00 0.00 39 1023.2
20260508121529 58 138 6.0 16.0 0.00 0.00 0.00 40 1023.2
20260508120029 58 109 7.0 13.0 0.00 0.00 0.00 37 1023.1
20260508114528 57 193 9.0 16.0 0.00 0.00 0.00 39 1023.1
20260508113126 58 94 4.0 15.0 0.00 0.00 0.00 43 1023.1
20260508111525 57 114 8.0 13.0 0.00 0.00 0.00 42 1023.2
20260508110031 57 111 7.0 13.0 0.00 0.00 0.00 41 1023.2
20260508104523 57 70 7.0 13.0 0.00 0.00 0.00 42 1023.3
20260508103036 57 115 5.0 11.0 0.00 0.00 0.00 42 1023.2
20260508101518 57 148 5.0 19.0 0.00 0.00 0.00 42 1023.1
20260508100017 57 98 7.0 12.0 0.00 0.00 0.00 37 1023.1
20260508094617 57 101 5.0 12.0 0.00 0.00 0.00 36 1023.0
20260508093011 57 145 5.0 12.0 0.00 0.00 0.00 44 1023.0
20260508091510 57 108 5.0 11.0 0.00 0.00 0.00 45 1023.0
20260508090003 56 84 5.0 11.0 0.00 0.00 0.00 52 1022.9
20260508084559 56 61 6.0 11.0 0.00 0.00 0.00 49 1022.8
20260508083056 56 90 6.0 11.0 0.00 0.00 0.00 59 1022.7
20260508081610 55 72 5.0 8.0 0.00 0.00 0.00 63 1022.8
20260508080049 54 84 3.0 9.0 0.00 0.00 0.00 58 1022.7
20260508074544 53 70 6.0 12.0 0.00 0.00 0.00 56 1022.6
20260508073045 53 82 6.0 10.0 0.00 0.00 0.00 63 1022.6
20260508071538 53 76 6.0 12.0 0.00 0.00 0.00 70 1022.4
20260508070031 53 117 4.0 10.0 0.00 0.00 0.00 69 1022.2
20260508064531 53 134 4.0 9.0 0.00 0.00 0.00 70 1022.0
20260508063023 52 105 3.0 8.0 0.00 0.00 0.00 71 1021.9
20260508061518 51 78 4.0 7.0 0.00 0.00 0.00 69 1021.8
20260508060021 51 82 2.0 6.0 0.00 0.00 0.00 74 1021.7
20260508054518 49 71 3.0 5.0 0.00 0.00 0.00 77 1021.5
20260508053004 48 92 1.0 3.0 0.00 0.00 0.00 83 1021.5
20260508051600 47 93 1.0 3.0 0.00 0.00 0.00 84 1021.4
20260508050055 44 109 0.0 1.0 0.00 0.00 0.00 86 1021.4
20260508044551 41 109 0.0 1.0 0.00 0.00 0.00 87 1021.2
20260508043055 39 109 0.0 0.0 0.00 0.00 0.00 89 1021.2
20260508041544 37 109 0.0 1.0 0.00 0.00 0.00 90 1021.1
20260508040040 35 17 0.0 0.0 0.00 0.00 0.00 90 1021.0
20260508034547 34 17 0.0 0.0 0.00 0.00 0.00 91 1021.0
20260508033036 33 17 0.0 0.0 0.00 0.00 0.00 90 1021.0
20260508031535 33 17 0.0 0.0 0.00 0.00 0.00 89 1020.9
20260508030034 33 17 0.0 0.0 0.00 0.00 0.00 89 1020.8